Weather in Almanchino

Russia / Chuvash Republic     55°41′46″N   47°13′18″E
temp.,
°C
wind,
m/s
gust,
m/s
humid.,
%
clouds,
%
prec.,
mm/h
press.,
hPa
HPBL,
m
25 october, mon
mon2500:00+3wsw3490100 0.1 1012287
03:00+3wnw3597100 0.4 1013474
06:00+1nnw81396100 1.2 1015617
09:00+1n7117979 1.6 1019952
12:00+2nnw795838 0.0 10221164
15:00+2nnw58565 0.0 10231008
18:00−1wnw3773100 0.0 1026148
21:00−1w367872 0.0 1026142
26 october, tue
tue2600:00−2wsw410805 0.0 1026261
03:00−2sw6137699 0.0 1025410
06:000sw71568100 0.0 1023520
09:00+1wsw7136498 0.0 1022646
12:00+3wsw8116166 0.0 1021794
15:00+4wsw6106496 0.0 1020777
18:00+2wsw5127397 0.0 1021404
21:00+2wsw5127499 0.0 1020375
27 october, wed
wed2700:00+1wsw51175100 0.0 1020347
03:00+1sw51176100 0.0 1020336
06:00+1sw51276100 0.0 1020343
09:00+2wsw61269100 0.0 1019471
12:00+5wsw71258100 0.0 1018630
15:00+6sw71456100 0.0 1017698
18:00+5sw71560100 0.0 1015570
21:00+5sw81664100 0.0 1014650
28 october, thu
thu2800:00+5wsw91567100 0.0 1012947
03:00+5w81587100 0.6 1012839
06:00+5w81487100 0.0 1013922
09:00+6w71378100 0.1 1014901
12:00+7w7127097 0.0 1015947
15:00+8w71067100 0.1 10151061
18:00+6wsw51175100 0.0 1015491
21:00+6wsw497890 0.0 1014411
29 october, fri
fri2900:00+6w3790100 0.1 1014343
03:00+5nnw4787100 0.5 1015821
06:00+2nne698244 0.1 1019570
09:00−2nne68635 0.1 1023586
12:00+1nne56515 0.0 1025841
15:00+1nne56525 0.0 1027867
18:00−3nne25695 0.0 1030126
21:00−3ne247350 0.0 1032103